When you browse on this site, cookies collect data to enhance your experience and personalize the content and advertising you see.
Visit our Privacy Policy to learn more. By continuing to use the site, you agree to this use of cookies and data.
  • In Spain
  • List of Countries
  • For 7 days
  • Water Temperature
  • Weather Map
  • Weather Widgets
  • user-avatar
    Login

    Hourly Weather Nacimiento

    Today, 4 June, Thursday

    Time Temperature Precipitation Wind Pressure Humidity
    00:00 +7°C° 0 mm 1 mps 759 mmHg 84%
    01:00 +7°C° 0 mm 1 mps 759 mmHg 84%
    02:00 +7°C° 0 mm 1 mps 759 mmHg 84%
    03:00 +7°C° 0 mm 1 mps 759 mmHg 84%
    04:00 +6°C° 0 mm 1 mps 759 mmHg 84%
    05:00 +6°C° 0 mm 1 mps 759 mmHg 83%
    06:00 +5°C° 0 mm 0 mps 760 mmHg 83%
    07:00 +5°C° 0 mm 0 mps 760 mmHg 83%
    08:00 +7°C° 0 mm 0 mps 760 mmHg 76%
    09:00 +9°C° 0 mm 0 mps 760 mmHg 69%
    10:00 +11°C° 0 mm 0 mps 760 mmHg 62%
    11:00 +12°C° 0 mm 0 mps 760 mmHg 58%
    12:00 +13°C° 0 mm 0 mps 760 mmHg 55%
    13:00 +14°C° 0 mm 0 mps 760 mmHg 51%
    14:00 +13°C° 0 mm 0 mps 760 mmHg 56%
    15:00 +12°C° 0 mm 0 mps 760 mmHg 62%
    16:00 +11°C° 0 mm 0 mps 760 mmHg 67%
    17:00 +10°C° 0 mm 0 mps 760 mmHg 72%
    18:00 +8°C° 0 mm 0 mps 760 mmHg 77%
    19:00 +7°C° 0 mm 0 mps 761 mmHg 81%
    20:00 +7°C° 0 mm 0 mps 761 mmHg 83%
    21:00 +6°C° 0 mm 0 mps 761 mmHg 84%
    22:00 +6°C° 0 mm 0 mps 761 mmHg 86%
    23:00 +5°C° 0 mm 0 mps 761 mmHg 87%

    Tomorrow, 5 June, Friday

    Time Temperature Precipitation Wind Pressure Humidity
    00:00 +5°C° 0 mm 0 mps 761 mmHg 87%
    01:00 +5°C° 0 mm 0 mps 761 mmHg 88%
    02:00 +5°C° 0 mm 0 mps 761 mmHg 88%
    03:00 +4°C° 0 mm 0 mps 761 mmHg 89%
    04:00 +4°C° 0 mm 0 mps 761 mmHg 89%
    05:00 +4°C° 0 mm 0 mps 761 mmHg 90%
    06:00 +4°C° 0 mm 0 mps 761 mmHg 91%
    07:00 +4°C° 0 mm 0 mps 761 mmHg 93%
    08:00 +6°C° 0 mm 0 mps 761 mmHg 84%
    09:00 +8°C° 0 mm 0 mps 760 mmHg 75%
    10:00 +12°C° 0 mm 1 mps 760 mmHg 66%
    11:00 +13°C° 0 mm 1 mps 759 mmHg 60%
    12:00 +14°C° 0 mm 1 mps 759 mmHg 55%
    13:00 +15°C° 0 mm 2 mps 758 mmHg 50%
    14:00 +14°C° 0 mm 1 mps 758 mmHg 55%
    15:00 +14°C° 0 mm 1 mps 758 mmHg 59%
    16:00 +13°C° 0 mm 1 mps 758 mmHg 64%
    17:00 +11°C° 0 mm 1 mps 758 mmHg 71%
    18:00 +10°C° 0 mm 1 mps 758 mmHg 77%
    19:00 +8°C° 0 mm 1 mps 758 mmHg 83%
    20:00 +8°C° 0 mm 1 mps 758 mmHg 84%
    21:00 +8°C° 0 mm 1 mps 757 mmHg 85%
    22:00 +7°C° 0 mm 1 mps 757 mmHg 86%
    23:00 +7°C° 0 mm 1 mps 757 mmHg 88%

    Day after tomorrow, 6 June, Saturday

    Time Temperature Precipitation Wind Pressure Humidity
    00:00 +7°C° 0 mm 1 mps 756 mmHg 89%
    01:00 +7°C° 0 mm 1 mps 756 mmHg 90%
    02:00 +7°C° 0 mm 1 mps 755 mmHg 91%
    03:00 +7°C° 0 mm 1 mps 755 mmHg 93%
    04:00 +6°C° 0 mm 1 mps 755 mmHg 94%
    05:00 +7°C° 0 mm 1 mps 755 mmHg 94%
    06:00 +6°C° 0 mm 2 mps 754 mmHg 95%
    07:00 +6°C° 0 mm 2 mps 754 mmHg 95%
    08:00 +7°C° 0 mm 2 mps 755 mmHg 91%
    09:00 +9°C° 0 mm 3 mps 755 mmHg 87%
    10:00 +11°C° 0 mm 3 mps 756 mmHg 83%
    11:00 +10°C° 0.4 mm 3 mps 756 mmHg 85%
    12:00 +10°C° 0.4 mm 2 mps 756 mmHg 88%
    13:00 +10°C° 0.4 mm 2 mps 756 mmHg 90%
    14:00 +11°C° 0.5 mm 1 mps 757 mmHg 92%
    15:00 +11°C° 0.5 mm 1 mps 757 mmHg 94%
    16:00 +11°C° 0.5 mm 1 mps 757 mmHg 95%
    17:00 +10°C° 0.1 mm 1 mps 758 mmHg 96%
    18:00 +10°C° 0.1 mm 1 mps 758 mmHg 96%
    19:00 +9°C° 0.1 mm 0 mps 758 mmHg 96%
    20:00 +9°C° 0 mm 0 mps 758 mmHg 96%
    21:00 +8°C° 0 mm 0 mps 758 mmHg 96%
    22:00 +8°C° 0 mm 0 mps 757 mmHg 96%
    23:00 +8°C° 0 mm 0 mps 757 mmHg 95%

    7 June, Sunday

    Time Temperature Precipitation Wind Pressure Humidity
    00:00 +8°C° 0 mm 0 mps 757 mmHg 95%
    01:00 +9°C° 0 mm 1 mps 757 mmHg 95%
    02:00 +8°C° 0 mm 1 mps 756 mmHg 95%
    03:00 +7°C° 0 mm 1 mps 756 mmHg 94%
    04:00 +7°C° 0 mm 1 mps 756 mmHg 94%
    05:00 +7°C° 0 mm 1 mps 756 mmHg 94%
    06:00 +6°C° 0 mm 0 mps 757 mmHg 94%
    07:00 +5°C° 0 mm 0 mps 757 mmHg 94%
    08:00 +7°C° 0 mm 0 mps 757 mmHg 88%
    09:00 +9°C° 0 mm 0 mps 757 mmHg 83%
    10:00 +10°C° 0 mm 0 mps 757 mmHg 78%
    11:00 +12°C° 0 mm 1 mps 757 mmHg 73%
    12:00 +13°C° 0 mm 1 mps 757 mmHg 68%
    13:00 +14°C° 0 mm 2 mps 757 mmHg 62%
    14:00 +13°C° 0 mm 2 mps 757 mmHg 64%
    15:00 +12°C° 0 mm 2 mps 757 mmHg 66%
    16:00 +12°C° 0 mm 2 mps 757 mmHg 68%
    17:00 +10°C° 0 mm 2 mps 757 mmHg 73%
    18:00 +9°C° 0 mm 2 mps 758 mmHg 77%
    19:00 +8°C° 0 mm 2 mps 758 mmHg 81%
    20:00 +8°C° 0 mm 2 mps 758 mmHg 83%
    21:00 +7°C° 0 mm 2 mps 758 mmHg 84%
    22:00 +7°C° 0 mm 2 mps 758 mmHg 86%
    23:00 +8°C° 0 mm 2 mps 758 mmHg 84%

    8 June, Monday

    Time Temperature Precipitation Wind Pressure Humidity
    00:00 +8°C° 0 mm 2 mps 758 mmHg 82%
    01:00 +8°C° 0 mm 3 mps 758 mmHg 81%
    02:00 +8°C° 0 mm 3 mps 758 mmHg 80%
    03:00 +8°C° 0 mm 4 mps 757 mmHg 79%
    04:00 +8°C° 0 mm 4 mps 757 mmHg 78%
    05:00 +8°C° 0.8 mm 4 mps 757 mmHg 81%
    06:00 +8°C° 0.8 mm 4 mps 757 mmHg 84%
    07:00 +8°C° 0.8 mm 4 mps 758 mmHg 87%
    08:00 +9°C° 2.7 mm 3 mps 758 mmHg 89%
    09:00 +10°C° 2.7 mm 3 mps 759 mmHg 91%
    10:00 +10°C° 2.7 mm 2 mps 759 mmHg 93%
    11:00 +12°C° 0.1 mm 2 mps 759 mmHg 84%
    12:00 +13°C° 0.1 mm 2 mps 759 mmHg 75%
    13:00 +14°C° 0.1 mm 1 mps 760 mmHg 65%
    14:00 +13°C° 0 mm 1 mps 760 mmHg 69%
    15:00 +13°C° 0 mm 1 mps 760 mmHg 72%
    16:00 +12°C° 0 mm 1 mps 760 mmHg 76%
    17:00 +10°C° 0 mm 1 mps 760 mmHg 80%
    18:00 +9°C° 0 mm 1 mps 760 mmHg 85%
    19:00 +7°C° 0 mm 0 mps 761 mmHg 89%
    20:00 +7°C° 0 mm 0 mps 761 mmHg 89%
    21:00 +6°C° 0 mm 0 mps 761 mmHg 89%
    22:00 +6°C° 0 mm 0 mps 761 mmHg 90%
    23:00 +6°C° 0 mm 0 mps 761 mmHg 90%

    9 June, Tuesday

    Time Temperature Precipitation Wind Pressure Humidity
    00:00 +5°C° 0 mm 0 mps 760 mmHg 91%
    01:00 +5°C° 0 mm 0 mps 760 mmHg 92%
    02:00 +6°C° 0 mm 1 mps 760 mmHg 91%
    03:00 +5°C° 0 mm 1 mps 760 mmHg 91%
    04:00 +5°C° 0 mm 1 mps 759 mmHg 91%
    05:00 +5°C° 0 mm 1 mps 759 mmHg 91%
    06:00 +5°C° 0 mm 1 mps 759 mmHg 90%
    07:00 +4°C° 0 mm 1 mps 759 mmHg 89%
    08:00 +6°C° 0 mm 0 mps 759 mmHg 82%
    09:00 +8°C° 0 mm 0 mps 759 mmHg 75%
    10:00 +10°C° 0 mm 0 mps 759 mmHg 68%
    11:00 +11°C° 0 mm 0 mps 759 mmHg 64%
    12:00 +12°C° 0 mm 0 mps 758 mmHg 59%
    13:00 +13°C° 0 mm 1 mps 758 mmHg 55%
    14:00 +13°C° 0 mm 1 mps 758 mmHg 60%
    15:00 +12°C° 0 mm 1 mps 757 mmHg 64%
    16:00 +11°C° 0 mm 1 mps 757 mmHg 68%
    17:00 +10°C° 0 mm 1 mps 758 mmHg 74%
    18:00 +8°C° 0 mm 1 mps 758 mmHg 80%
    19:00 +7°C° 0 mm 1 mps 758 mmHg 85%
    20:00 +7°C° 0 mm 1 mps 758 mmHg 87%
    21:00 +6°C° 0 mm 1 mps 758 mmHg 88%
    22:00 +6°C° 0 mm 1 mps 758 mmHg 90%
    23:00 +6°C° 0 mm 1 mps 758 mmHg 89%
    Show more